Weather History for Indianapolis, IN

Change the Weather History Date:

Friday, September 6, 2013

  Actual Average Record
Temperature  
Mean Temperature 73 °F 71 °F  
Max Temperature 85 °F 81 °F 99 °F (1954)
Min Temperature 61 °F 60 °F 44 °F (1988)
Degree Days  
Heating Degree Days 0 1  
Month to date heating degree days 0 2  
Since 1 July heating degree days 8 6  
Cooling Degree Days 8 6  
Month to date cooling degree days 48 42  
Year to date cooling degree days 1007 963  
Growing Degree Days 22 (Base 50)    
Moisture  
Dew Point 53 °F    
Average Humidity 52    
Maximum Humidity 66    
Minimum Humidity 37    
Precipitation  
Precipitation 0.00 in 0.10 in 1.19 in (1925)
Month to date precipitation T 0.59  
Year to date precipitation 29.93 29.92  
Snow  
Snow 0.00 in 0.00 in 0.00 in ()
Month to date snowfall 0.0 0.0  
Since 1 July snowfall 0.0 0.0  
Since 1 September snowfall 0.0 0.0  
Snow Depth 0.00 in    
Sea Level Pressure  
Sea Level Pressure 30.16 in    
Wind  
Wind Speed 6 mph (ESE)    
Max Wind Speed 13 mph    
Max Gust Speed 15 mph    
Visibility 10 miles    
Events      
T = Trace of Precipitation, MM = Missing Value Source: NWS Daily Summary

Daily Weather History Graph

Daily Weather History Graph

Search for Another Location

Airport:

Trip Planner

Search our weather history database for the weather conditions in past years. The results will help you decide how hot, cold, wet, or windy it might be!

Date:

Astronomy

Sep. 06, 2013 Rise Set
Actual Time 7:18 AM EDT 8:08 PM EDT
Civil Twilight 6:50 AM EDT 8:35 PM EDT
Nautical Twilight 6:18 AM EDT 9:07 PM EDT
Astronomical Twilight 5:44 AM EDT 9:41 PM EDT
Moon 8:29 AM EDT (9/6) 8:32 PM EDT (9/6)
Length of Visible Light 13h 44m
Length of Day
12h 49m
New Moon, 1% of the Moon is Illuminated
Sep 6
New Moon
Sep 12
First Quarter
Sep 19
Full
Sep 26
Last Quarter
Oct 4
New

Hourly Weather History & Observations

Time (EDT) Temp. Heat Index Dew Point Humidity Pressure Visibility Wind Dir Wind Speed Gust Speed Precip Events Conditions
12:54 AM 70.0 °F - 55.9 °F 61% 30.18 in 10.0 mi NE 6.9 mph - N/A   Partly Cloudy
1:54 AM 70.0 °F - 50.0 °F 49% 30.18 in 10.0 mi East 9.2 mph - N/A   Partly Cloudy
2:54 AM 66.9 °F - 48.9 °F 52% 30.19 in 10.0 mi East 9.2 mph - N/A   Scattered Clouds
3:54 AM 64.9 °F - 48.0 °F 54% 30.19 in 10.0 mi East 8.1 mph - N/A   Partly Cloudy
4:54 AM 63.0 °F - 46.9 °F 56% 30.19 in 10.0 mi East 8.1 mph - N/A   Partly Cloudy
5:54 AM 62.1 °F - 46.9 °F 58% 30.20 in 10.0 mi East 10.4 mph - N/A   Partly Cloudy
6:54 AM 61.0 °F - 46.9 °F 60% 30.21 in 10.0 mi East 6.9 mph - N/A   Scattered Clouds
7:54 AM 61.0 °F - 48.0 °F 62% 30.21 in 10.0 mi East 6.9 mph - N/A   Partly Cloudy
8:54 AM 64.0 °F - 48.0 °F 56% 30.22 in 10.0 mi East 11.5 mph - N/A   Scattered Clouds
9:54 AM 66.0 °F - 48.0 °F 52% 30.22 in 10.0 mi East 8.1 mph - N/A   Scattered Clouds
10:54 AM 70.0 °F - 48.9 °F 47% 30.22 in 10.0 mi Variable 4.6 mph - N/A   Partly Cloudy
11:54 AM 75.0 °F - 51.1 °F 43% 30.21 in 10.0 mi Variable 5.8 mph - N/A   Partly Cloudy
12:54 PM 78.1 °F - 51.1 °F 39% 30.19 in 10.0 mi South 5.8 mph - N/A   Partly Cloudy
1:54 PM 80.1 °F 80.0 °F 54.0 °F 40% 30.17 in 10.0 mi SSW 5.8 mph - N/A   Partly Cloudy
2:54 PM 82.9 °F 82.4 °F 57.0 °F 41% 30.15 in 10.0 mi Variable 5.8 mph - N/A   Scattered Clouds
3:54 PM 84.0 °F 83.0 °F 55.9 °F 38% 30.13 in 10.0 mi Calm Calm - N/A   Scattered Clouds
4:54 PM 84.0 °F 83.3 °F 57.0 °F 40% 30.10 in 10.0 mi Calm Calm - N/A   Mostly Cloudy
5:54 PM 84.0 °F 83.0 °F 55.9 °F 38% 30.09 in 10.0 mi Calm Calm - N/A   Mostly Cloudy
6:54 PM 82.0 °F 81.7 °F 57.0 °F 42% 30.09 in 10.0 mi South 3.5 mph - N/A   Mostly Cloudy
7:54 PM 80.1 °F 80.7 °F 59.0 °F 48% 30.08 in 10.0 mi South 6.9 mph - N/A   Mostly Cloudy
8:54 PM 75.9 °F - 57.9 °F 54% 30.08 in 10.0 mi SE 4.6 mph - N/A   Scattered Clouds
9:54 PM 73.0 °F - 57.9 °F 59% 30.09 in 10.0 mi ESE 4.6 mph - N/A   Scattered Clouds
10:54 PM 72.0 °F - 57.9 °F 61% 30.08 in 10.0 mi SE 8.1 mph - N/A   Scattered Clouds
11:54 PM 70.0 °F - 57.9 °F 65% 30.08 in 10.0 mi SE 5.8 mph - N/A   Clear